Location: Podia
(1.5569°N, 32.3469°E)
Time: 04:02:36
(UTC+00:00)

Hubble Space Telescope - Pass Details

Date: 14 May 2021
Orbit: 535 x 539 km, 28.5° (Epoch: 16 June)

Event Time Altitude Azimuth Distance (km) Brightness Sun altitude
Exits shadow 01:22:28 16° 87° (E) 1,419 3.5 -33.4°
Drops below altitude 10° 01:23:29 10° 81° (E) 1,774 4.2 -33.1°
Sets 01:25:50 0° 73° (ENE) 2,662 5.4 -32.6°
